Ash Shahamah, UAE

10:28 AM +04 on September 26, 2017 (GMT +0400)
Ash Shahamah

Weather History for 41217 - September, 2013

Change the Weather History Date:

Monday, September 16, 2013

  Actual Average Record
Temperature  
Mean Temperature 94 °F -  
Max Temperature 105 °F 98 °F - ()
Min Temperature 84 °F 75 °F - ()
Cooling Degree Days 30    
Growing Degree Days 44 (Base 50)    
Moisture  
Dew Point 76 °F    
Average Humidity 63    
Maximum Humidity 89    
Minimum Humidity 13    
Precipitation  
Precipitation 0.00 in 0.00 in - ()
Sea Level Pressure  
Sea Level Pressure 29.58 in    
Wind  
Wind Speed 5 mph ()    
Max Wind Speed 17 mph    
Max Gust Speed 20 mph    
Visibility 5.5 miles    
Events      
T = Trace of Precipitation, MM = Missing Value Source: Averaged Metar Reports

Daily Weather History Graph

Daily Weather History Graph

Search for Another Location

Airport or City:

Trip Planner

Search our weather history database for the weather conditions in past years. The results will help you decide how hot, cold, wet, or windy it might be!

Date:

Astronomy

Sep. 16, 2013 Rise Set
Actual Time 6:07 AM +04 6:24 PM +04
Civil Twilight 5:45 AM +04 6:47 PM +04
Nautical Twilight 5:18 AM +04 7:13 PM +04
Astronomical Twilight 4:51 AM +04 7:40 PM +04
Moon 4:02 PM +04 (9/16) 2:44 AM +04 (9/16)
Length of Visible Light 13h 01m
Length of Day
12h 16m
Waxing Gibbous, 87% of the Moon is Illuminated
Sep 16
Waxing Gibbous
Sep 19
Full
Sep 27
Last Quarter
Oct 5
New
Oct 12
First Quarter

Hourly Weather History & Observations

Time (+04) Temp. Heat Index Dew Point Humidity Pressure Visibility Wind Dir Wind Speed Gust Speed Precip Events Conditions
12:00 AM 86.0 °F 96.9 °F 77.0 °F 74% 29.59 in - NE 3.5 mph - N/A   Clear
1:00 AM 87 °F - 79 °F 70% 29.58 in 6 mi 1.2 mph - -  
1:00 AM 86.0 °F 99.3 °F 78.8 °F 79% 29.56 in - Variable 1.2 mph - N/A   Clear
2:00 AM 86.0 °F 99.3 °F 78.8 °F 79% 29.56 in - NE 3.5 mph - N/A   Clear
3:00 AM 86.0 °F 101.9 °F 80.6 °F 84% 29.56 in - ENE 4.6 mph - N/A   Clear
4:00 AM 84.2 °F 98.3 °F 80.6 °F 89% 29.56 in - ENE 4.6 mph - N/A   Clear
5:00 AM 84.2 °F 96.1 °F 78.8 °F 84% 29.59 in - Variable 1.2 mph - N/A   Clear
6:00 AM 84.2 °F 96.1 °F 78.8 °F 84% 29.59 in 5.0 mi SE 2.3 mph - N/A   Unknown
7:00 AM 84 °F - 80 °F 83% 29.62 in 5 mi East 4.6 mph - -   Haze
7:00 AM 84.2 °F 96.1 °F 78.8 °F 84% 29.62 in 5.0 mi East 4.6 mph - N/A   Unknown
8:00 AM 86.0 °F 101.9 °F 80.6 °F 84% 29.62 in 5.0 mi East 4.6 mph - N/A   Unknown
9:00 AM 89.6 °F 111.1 °F 82.4 °F 79% 29.65 in 5.6 mi NE 4.6 mph - N/A   Unknown
10:00 AM 93.2 °F 113.6 °F 80.6 °F 67% 29.65 in - East 5.8 mph - N/A   Clear
11:00 AM 96.8 °F 103.1 °F 69.8 °F 41% 29.62 in - ESE 6.9 mph - N/A   Clear
12:00 PM 104.0 °F 103.4 °F 57.2 °F 21% 29.62 in - ENE 2.3 mph - N/A   Clear
1:00 PM 105 °F - 57 °F 13% 29.59 in 6 mi North 4.6 mph - -  
1:00 PM 105.8 °F 105.5 °F 57.2 °F 20% 29.59 in - North 4.6 mph - N/A   Clear
2:00 PM 102.2 °F 114.4 °F 73.4 °F 40% 29.56 in - NW 13.8 mph - N/A   Clear
3:00 PM 100.4 °F 116.5 °F 77.0 °F 47% 29.56 in - NW 16.1 mph - N/A   Clear
4:00 PM 97 °F - 70 °F 33% 29.55 in 6 mi NW 16.1 mph - -  
4:00 PM 96.8 °F 103.1 °F 69.8 °F 41% 29.53 in - NW 16.1 mph - N/A   Clear
5:00 PM 96.8 °F 109.6 °F 75.2 °F 50% 29.53 in - NW 17.3 mph - N/A   Clear
6:00 PM 93.2 °F 107.2 °F 77.0 °F 59% 29.53 in - NW 15.0 mph - N/A   Clear
7:00 PM 93 °F - 79 °F 55% 29.56 in 6 mi NW 13.8 mph - -  
7:00 PM 93.2 °F 110.2 °F 78.8 °F 63% 29.56 in - NW 13.8 mph - N/A   Clear
8:00 PM 91.4 °F 111.0 °F 80.6 °F 71% 29.56 in 5.0 mi NW 11.5 mph - N/A   Unknown
9:00 PM 91.4 °F 107.2 °F 78.8 °F 66% 29.59 in - NNW 8.1 mph - N/A   Clear
10:00 PM 89.6 °F 108.2 °F 80.6 °F 75% 29.59 in - NW 6.9 mph 19.6 mph N/A   Clear
10:22 PM 89.6 °F 108.2 °F 80.6 °F 75% 29.62 in - East 11.5 mph - N/A   Clear
11:00 PM 89.6 °F 108.2 °F 80.6 °F 75% 29.59 in - ENE 5.8 mph - N/A   Clear